TheGetRank SiteMap Page 4872
Home 4822 4823 4824 4825 4826 4827 4828 4829 4830 4831 4832 4833 4834 4835 4836 4837 4838 4839 4840 4841 4842 4843 4844 4845 4846 4847 4848 4849 4850 4851 4852 4853 4854 4855 4856 4857 4858 4859 4860 4861 4862 4863 4864 4865 4866 4867 4868 4869 4870 4871 4872 4873 4874 4875 4876 4877 4878 4879 4880 4881 4882 4883 4884 4885 4886 4887 4888 4889 4890 4891 4892 4893 4894 4895 4896 4897 4898 4899 4900 4901 4902 4903 4904 4905 4906 4907 4908 4909 4910 4911 4912 4913 4914 4915 4916 4917 4918 4919 4920 4921 4922
S.NO. Website Pagerank Alexa Rank Last Updated
4871000 mdpvdangers.com 0 27091667 2011-12-10 01:39:29
4871001 transpireholdings.com 0 No Rank 2011-12-10 01:39:29
4871002 eudelegation.hu 0 14408010 2011-12-10 01:39:30
4871003 dalessio.com.ar 0 609338 2011-12-10 01:39:30
4871004 realmcolors.com 0 No Rank 2011-12-10 01:39:32
4871005 thecammeyer.com 0 17110118 2011-12-10 01:39:32
4871006 md-od.org 0 No Rank 2011-12-10 01:39:33
4871007 airtamer.com.cn 0 No Rank 2011-12-10 01:39:36
4871008 sro.com.hk 0 No Rank 2011-12-10 01:39:37
4871009 mcthai.co.th 0 204221 2011-12-10 01:39:38
4871010 barabasilab.com 0 1680528 2011-12-10 01:39:39
4871011 jungleninja.com 0 2071555 2011-12-10 01:39:40
4871012 skupautslask.pl 0 No Rank 2011-12-10 01:39:41
4871013 mcmahonshomefurniture.com 0 No Rank 2011-12-10 01:39:42
4871014 sangnangkao.com 0 No Rank 2011-12-10 01:39:44
4871015 mcleoddentalcare.com 0 No Rank 2011-12-10 01:39:44
4871016 silbersaiten.de 0 710538 2011-12-10 01:39:46
4871017 reliableatm.net 0 No Rank 2011-12-10 01:39:47
4871018 mcl.co.at 0 No Rank 2011-12-10 01:39:48
4871019 gchangetout.com 0 355699 2011-12-10 01:39:49
4871020 mddfc.org 0 No Rank 2011-12-10 01:39:49
4871021 mcgregor-texas.com 0 7118274 2011-12-10 01:39:51
4871022 mccrostie.co.nz 0 No Rank 2011-12-10 01:39:53
4871023 pk-rozdil3.info 0 16847034 2011-12-10 01:39:56
4871024 mccabesprinting.com 0 12171833 2011-12-10 01:39:57
4871025 giannigamba.com 0 No Rank 2011-12-10 01:39:58
4871026 mbwmarlins.com 0 No Rank 2011-12-10 01:39:58
4871027 houstonsbestpatiocovers.com 0 20166681 2011-12-10 01:39:58
4871028 nellythomas.com 0 No Rank 2011-12-10 01:40:00
4871029 mbtk.dk 0 No Rank 2011-12-10 01:40:01
4871030 indo-german.com 0 9614320 2011-12-10 01:40:01
4871031 mbridge.com 0 2911539 2011-12-10 01:40:02
4871032 csicollects.com 0 No Rank 2011-12-10 01:40:02
4871033 niou.com.hk 0 No Rank 2011-12-10 01:40:03
4871034 horizonheli.com 0 18997127 2011-12-10 01:40:03
4871035 elpetoxines.com 0 15657462 2011-12-10 01:40:04
4871036 grovesales.co.uk 0 19259125 2011-12-10 01:40:05
4871037 cnbs.cc 0 1292781 2011-12-10 01:40:05
4871038 mbm-lumar.hr 0 No Rank 2011-12-10 01:40:07
4871039 pastinaband.com 0 No Rank 2011-12-10 01:40:13
4871040 evidentista.org 0 10629934 2011-12-10 01:40:14
4871041 mbkidsdirectory.com 0 8828000 2011-12-10 01:40:15
4871042 horizonenergysystems.com 0 No Rank 2011-12-10 01:40:16
4871043 maytime.co.nz 0 No Rank 2011-12-10 01:40:19
4871044 mayportyardsales.com 0 No Rank 2011-12-10 01:40:22
4871045 butterfly-shopping.blogspot.com 0 No Rank 2011-12-10 01:40:24
4871046 mbay.co.za 0 13114585 2011-12-10 01:40:24
4871047 maxwellfarms.com 0 No Rank 2011-12-10 01:40:30
4871048 chinchilla-shop.blogspot.com 0 No Rank 2011-12-10 01:40:32
4871049 maxonsweden.se 0 No Rank 2011-12-10 01:40:36
4871050 maxmotorcyclemechanic.com 0 No Rank 2011-12-10 01:40:36
4871051 minthillgaragedoor.com 0 No Rank 2011-12-10 01:40:42
4871052 mintis.info 0 12565343 2011-12-10 01:40:46
4871053 cobra-shop.blogspot.com 0 No Rank 2011-12-10 01:40:50
4871054 mintavsystems.com 0 No Rank 2011-12-10 01:40:51
4871055 mininginnovations.com 0 No Rank 2011-12-10 01:40:51
4871056 chamois-shop.blogspot.com 0 No Rank 2011-12-10 01:40:52
4871057 minicomputerworld.com 0 No Rank 2011-12-10 01:40:54
4871058 minerd.net 0 18675500 2011-12-10 01:40:59
4871059 mindprobes.net 0 26012545 2011-12-10 01:40:59
4871060 huntersedgelv.com 0 7447572 2011-12-10 01:41:00
4871061 chicken-shopping.blogspot.com 0 No Rank 2011-12-10 01:41:02
4871062 mindfulmovesllc.com 0 No Rank 2011-12-10 01:41:02
4871063 caribou-shop.blogspot.com 0 No Rank 2011-12-10 01:41:04
4871064 husbands.thepurebed.com 0 1823588 2011-12-10 01:41:04
4871065 tvspielfilm.de 0 4113 2011-12-10 01:41:06
4871066 mindenmotorsports.net 0 No Rank 2011-12-10 01:41:10
4871067 mindlab.es 0 No Rank 2011-12-10 01:41:12
4871068 mindenfele.hu 0 No Rank 2011-12-10 01:41:14
4871069 camel-shopping.blogspot.com 0 No Rank 2011-12-10 01:41:14
4871070 buffalo-shop.blogspot.com 0 No Rank 2011-12-10 01:41:15
4871071 minarik-pila.cz 0 No Rank 2011-12-10 01:41:17
4871072 cheetah-shop.blogspot.com 0 No Rank 2011-12-10 01:41:18
4871073 mimozamemlak.com 0 27826039 2011-12-10 01:41:20
4871074 boar-shop.blogspot.com 0 No Rank 2011-12-10 01:41:20
4871075 mimb.org 0 23724735 2011-12-10 01:41:22
4871076 millettbbc.org 0 No Rank 2011-12-10 01:41:28
4871077 milkcrisis.com 0 22456900 2011-12-10 01:41:28
4871078 milescorwin.com 0 No Rank 2011-12-10 01:41:35
4871079 acehigh.over-blog.de 0 17274 2011-12-10 01:41:37
4871080 milandesigner.com 0 4603794 2011-12-10 01:41:40
4871081 mildredbrignoni.com 0 6113723 2011-12-10 01:41:44
4871082 omarket.cz 0 8347391 2011-12-10 01:41:44
4871083 miklsoft.com 0 2009289 2011-12-10 01:41:44
4871084 pihs.com.sg 0 No Rank 2011-12-10 01:41:46
4871085 talkph.net 0 1294679 2011-12-10 01:41:49
4871086 slevovar.cz 0 933750 2011-12-10 01:41:52
4871087 mikedarnaud.com 0 No Rank 2011-12-10 01:41:53
4871088 mikko.ws 0 6823497 2011-12-10 01:41:56
4871089 mikecritelli.com 0 7573081 2011-12-10 01:42:00
4871090 mika-m.net 0 No Rank 2011-12-10 01:42:02
4871091 mielderlaw.com 0 No Rank 2011-12-10 01:42:05
4871092 miekkio.net 0 No Rank 2011-12-10 01:42:10
4871093 hybridrhythmsdance.com 0 No Rank 2011-12-10 01:42:10
4871094 midwestmanagementandhousingllc.com 0 No Rank 2011-12-10 01:42:11
4871095 go2.comparedoubleglazing.com 0 No Rank 2011-12-10 01:42:12
4871096 midsouthfoodbank.org 0 8509520 2011-12-10 01:42:14
4871097 ilovelagra.com 0 4558923 2011-12-10 01:42:15
4871098 midhudsonsportingclays.com 0 No Rank 2011-12-10 01:42:18
4871099 midniteriders.com 0 No Rank 2011-12-10 01:42:20
4871100 interfacedevelopmentinc.com 0 25862379 2011-12-10 01:42:23
4871101 middlenote.jp 0 No Rank 2011-12-10 01:42:24
4871102 midcenturysoftware.com 0 17192226 2011-12-10 01:42:26
4871103 micronmetalfinishing.com 0 No Rank 2011-12-10 01:42:28
4871104 ilovetacoscatering.com 0 17704743 2011-12-10 01:42:28
4871105 slevyhracek.cz 0 3385077 2011-12-10 01:42:32
4871106 mybizfriend.ph 0 1448250 2011-12-10 01:42:33
4871107 microcertec.com 0 No Rank 2011-12-10 01:42:34
4871108 micro-sluice.com 0 No Rank 2011-12-10 01:42:36
4871109 mickmcnulty.com 0 No Rank 2011-12-10 01:42:37
4871110 m.xahoi.com.vn 0 184492 2011-12-10 01:42:39
4871111 michiganlacrosse.org 0 No Rank 2011-12-10 01:42:40
4871112 yjc-preusem.com 0 No Rank 2011-12-10 01:42:41
4871113 michelricard.com 0 No Rank 2011-12-10 01:42:41
4871114 rvcentre.edu.vn 0 26438436 2011-12-10 01:42:44
4871115 michellejroy.com 0 No Rank 2011-12-10 01:42:44
4871116 michelelynchart.com 0 No Rank 2011-12-10 01:42:47
4871117 michelebeckers.com 0 No Rank 2011-12-10 01:42:48
4871118 brtneyspears.com 0 No Rank 2011-12-10 01:42:49
4871119 michel.lagalerie.free.fr 0 8230681 2011-12-10 01:42:51
4871120 marijuanaarticles.org 0 No Rank 2011-12-10 01:42:51
4871121 marieclaudebouthillier.org 0 No Rank 2011-12-10 01:42:54
4871122 0534dy.com 0 10895369 2011-12-10 01:43:00
4871123 margaritakerdela.com 0 No Rank 2011-12-10 01:43:00
4871124 marginal-sport.ch 0 21332058 2011-12-10 01:43:01
4871125 marekmajewski.pl 0 No Rank 2011-12-10 01:43:04
4871126 italianhomestone.com 0 No Rank 2011-12-10 01:43:05
4871127 samouchitel-angliyskogo.100webspace.net 0 212766 2011-12-10 01:43:09
4871128 mare-domus.de 0 No Rank 2011-12-10 01:43:11
4871129 marcusteng.com 0 22871918 2011-12-10 01:43:14
4871130 jaykenny.com 0 No Rank 2011-12-10 01:43:15
4871131 marchuska.com 0 7250000 2011-12-10 01:43:16
4871132 mmi-greetings.com 0 No Rank 2011-12-10 01:43:18
4871133 tuan.xahoi.com.vn 0 184492 2011-12-10 01:43:20
4871134 jensenselitedetail.com 0 No Rank 2011-12-10 01:43:20
4871135 marchermann.net 0 No Rank 2011-12-10 01:43:22
4871136 joaag.com 0 2069886 2011-12-10 01:43:23
4871137 marcushesse.com 0 3253156 2011-12-10 01:43:24
4871138 bali-nasilemak.com 0 10617529 2011-12-10 01:43:25
4871139 marcazzi.com 0 15967563 2011-12-10 01:43:26
4871140 coastsocial.com 0 No Rank 2011-12-10 01:43:27
4871141 marbiastudios.com 0 23147152 2011-12-10 01:43:29
4871142 manymetal.com 0 No Rank 2011-12-10 01:43:33
4871143 mansourfamily.com 0 No Rank 2011-12-10 01:43:38
4871144 craftswoodworking.info 0 14760805 2011-12-10 01:43:38
4871145 manoirdelaforet.fr 0 No Rank 2011-12-10 01:43:38
4871146 manitoba-rc.com 0 No Rank 2011-12-10 01:43:42
4871147 mangalgiri.com 0 No Rank 2011-12-10 01:43:45
4871148 mandump.com 0 No Rank 2011-12-10 01:43:47
4871149 mandmdesignflooring.com 0 No Rank 2011-12-10 01:43:48
4871150 managementinventories.com 0 No Rank 2011-12-10 01:43:52
4871151 maltaflying.com 0 No Rank 2011-12-10 01:44:00
4871152 mamakatslosinit.com 0 83549 2011-12-10 01:44:03
4871153 malsija-rks.com 0 No Rank 2011-12-10 01:44:06
4871154 mallusongs.com 0 14367941 2011-12-10 01:44:10
4871155 mallohomeimp.com 0 No Rank 2011-12-10 01:44:11
4871156 malinoart.com 0 No Rank 2011-12-10 01:44:18
4871157 malinkadress.com 0 No Rank 2011-12-10 01:44:18
4871158 loadcentral.mybizfriend.ph 0 1448250 2011-12-10 01:44:22
4871159 malibutileinstaller.com 0 No Rank 2011-12-10 01:44:23
4871160 maleweddingrings.org 0 No Rank 2011-12-10 01:44:23
4871161 malenag.com 0 No Rank 2011-12-10 01:44:27
4871162 singaporechinafoundation.org 0 No Rank 2011-12-10 01:44:30
4871163 malethingexplained.com 0 No Rank 2011-12-10 01:44:32
4871164 malcolminternational.com 0 No Rank 2011-12-10 01:44:33
4871165 malbonetrust.com 0 No Rank 2011-12-10 01:44:34
4871166 eurekapetlover.com 0 No Rank 2011-12-10 01:44:36
4871167 makeovermykitchen.com 0 No Rank 2011-12-10 01:44:42
4871168 makemealive.com 0 17900834 2011-12-10 01:44:52
4871169 makekauinc.com 0 No Rank 2011-12-10 01:44:54
4871170 majicmirror.com 0 No Rank 2011-12-10 01:44:57
4871171 maintenancejobs.net 0 No Rank 2011-12-10 01:45:01
4871172 mainstreetinnbb.com 0 No Rank 2011-12-10 01:45:05
4871173 sardaa.ca 0 No Rank 2011-12-10 01:45:12
4871174 mainelemonlaw.org 0 No Rank 2011-12-10 01:45:12
4871175 maingearforums.com 0 386844 2011-12-10 01:45:12
4871176 saka7.com 0 2873437 2011-12-10 01:45:13
4871177 mailminion.com 0 2465063 2011-12-10 01:45:16
4871178 maillotsdefoot.net 0 No Rank 2011-12-10 01:45:19
4871179 maidswinnipeg.com 0 No Rank 2011-12-10 01:45:19
4871180 mahpo.com 0 No Rank 2011-12-10 01:45:21
4871181 mahoneylumber.com 0 No Rank 2011-12-10 01:45:23
4871182 jvillecoc.com 0 No Rank 2011-12-10 01:45:27
4871183 magpi-gw.org 0 No Rank 2011-12-10 01:45:27
4871184 rygvoip.org 0 16333021 2011-12-10 01:45:32
4871185 magnoliaclub.ro 0 18374378 2011-12-10 01:45:32
4871186 magictouchmassages.com 0 No Rank 2011-12-10 01:45:34
4871187 argespur0.de 0 570476 2011-12-10 01:45:34
4871188 kelseytown.com 0 No Rank 2011-12-10 01:45:37
4871189 magenta.co.rs 0 No Rank 2011-12-10 01:45:38
4871190 magellan-kazan.ru 0 9959928 2011-12-10 01:45:40
4871191 maesmescalero.com 0 No Rank 2011-12-10 01:45:42
4871192 keaylaw.com 0 No Rank 2011-12-10 01:45:42
4871193 rssportal.ru 0 344462 2011-12-10 01:45:44
4871194 fulminous.com 0 No Rank 2011-12-10 01:45:46
4871195 madsmogensen.com 0 No Rank 2011-12-10 01:45:46
4871196 madriverrocket.com 0 5256755 2011-12-10 01:45:47
4871197 lunarhope.com 0 No Rank 2011-12-10 01:45:50
4871198 nilebasin.com 0 27456711 2011-12-10 01:45:54
4871199 madhubanhotel.com 0 5284204 2011-12-10 01:45:56
4871200 mader-clark.com 0 No Rank 2011-12-10 01:45:59
4871201 madfiber.net 0 No Rank 2011-12-10 01:46:03
4871202 madeintheshade.org 0 No Rank 2011-12-10 01:46:04
4871203 macomsoft.com 0 No Rank 2011-12-10 01:46:11
4871204 kyoto-index.net 0 No Rank 2011-12-10 01:46:16
4871205 elmardueren.com 0 No Rank 2011-12-10 01:46:16
4871206 nightsearch.net 0 9576468 2011-12-10 01:46:20
4871207 billyboy.lad.jp 0 940068 2011-12-10 01:46:23
4871208 shworldbest.com 0 11137613 2011-12-10 01:46:23
4871209 trackroller.com 0 No Rank 2011-12-10 01:46:28
4871210 kkk.fanforum.ru 0 879783 2011-12-10 01:46:32
4871211 samsungsoft.com 0 No Rank 2011-12-10 01:46:33
4871212 kitchendesignsbymike.com 0 6007554 2011-12-10 01:46:34
4871213 maces.com.my 0 19820514 2011-12-10 01:46:36
4871214 semillaskate.cl 0 No Rank 2011-12-10 01:46:37
4871215 kimkellerpr.com 0 No Rank 2011-12-10 01:46:37
4871216 sasakidenki.net 0 No Rank 2011-12-10 01:46:39
4871217 happy-phone.com 0 No Rank 2011-12-10 01:46:39
4871218 madbomberrun.com 0 17507171 2011-12-10 01:46:40
4871219 macedonia.abc.pl 0 530456 2011-12-10 01:46:40
4871220 lastclock.co.uk 0 12333009 2011-12-10 01:46:41
4871221 macchinepcm.com 0 No Rank 2011-12-10 01:46:43
4871222 lahiacondorental.com 0 No Rank 2011-12-10 01:46:43
4871223 hankberumen.com 0 No Rank 2011-12-10 01:46:44
4871224 nowhearthis.com 0 No Rank 2011-12-10 01:46:45
4871225 mabp.org 0 No Rank 2011-12-10 01:46:48
4871226 migros-shops.ch 0 6961985 2011-12-10 01:46:53
4871227 m-incorporated.com 0 No Rank 2011-12-10 01:46:54
4871228 m-cem.com 0 No Rank 2011-12-10 01:46:55
4871229 liburananak.com 0 1546678 2011-12-10 01:46:57
4871230 samsebelekar.ru 0 311260 2011-12-10 01:47:01
4871231 lynfieldrobotics.org 0 No Rank 2011-12-10 01:47:03
4871232 lynnecooncounseling.com 0 6639751 2011-12-10 01:47:05
4871233 etreproprio.com 0 566504 2011-12-10 01:47:07
4871234 webzeppelin.net 0 No Rank 2011-12-10 01:47:11
4871235 lynchandlynchcpas.com 0 No Rank 2011-12-10 01:47:12
4871236 lwvcolumbiasc.org 0 25601096 2011-12-10 01:47:13
4871237 lwoodsphotoimaging.com 0 No Rank 2011-12-10 01:47:14
4871238 wzqh.cnfish.com 0 No Rank 2011-12-10 01:47:18
4871239 hikariyonara.jp 0 No Rank 2011-12-10 01:47:18
4871240 luxuryasiatrails.com 0 No Rank 2011-12-10 01:47:22
4871241 lutheranhighsandiego.org 0 11181617 2011-12-10 01:47:28
4871242 lundebergengineering.com 0 No Rank 2011-12-10 01:47:30
4871243 seiwakai.com.br 0 15907636 2011-12-10 01:47:31
4871244 graceshydro.com 0 No Rank 2011-12-10 01:47:31
4871245 jetrouvepas.com 0 No Rank 2011-12-10 01:47:35
4871246 luminzstudio.com 0 8691826 2011-12-10 01:47:36
4871247 lunch-kobo.com 0 No Rank 2011-12-10 01:47:37
4871248 sjz12365.gov.cn 0 14753456 2011-12-10 01:47:40
4871249 lukenyagetaway.com 0 6377364 2011-12-10 01:47:45
4871250 luislugo.com 0 No Rank 2011-12-10 01:47:48
4871251 me2medesign.com 0 No Rank 2011-12-10 01:47:48
4871252 csb-battery.com 0 1292662 2011-12-10 01:47:49
4871253 lakeshorecustompowdercoating.com 0 No Rank 2011-12-10 01:47:50
4871254 meritroofing.ca 0 No Rank 2011-12-10 01:47:51
4871255 luckylanding.net 0 No Rank 2011-12-10 01:47:53
4871256 forceward.com 0 5284754 2011-12-10 01:47:53
4871257 shedtrailer.com 0 16896252 2011-12-10 01:47:54
4871258 pro-partners.nl 0 851936 2011-12-10 01:47:55
4871259 lasvegastileandgroutcleaning.com 0 No Rank 2011-12-10 01:47:56
4871260 oak-ridge.tn.us 0 No Rank 2011-12-10 01:47:58
4871261 lucere.org 0 No Rank 2011-12-10 01:47:59
4871262 lifelongeducationalopps.com 0 8131070 2011-12-10 01:48:01
4871263 play.childa.net 0 27641883 2011-12-10 01:48:02
4871264 scchinadoll.com 0 No Rank 2011-12-10 01:48:05
4871265 renax-camion.hu 0 No Rank 2011-12-10 01:48:14
4871266 freeauctions.jp 0 2448176 2011-12-10 01:48:21
4871267 ltms.com 0 No Rank 2011-12-10 01:48:21
4871268 ibc.katowice.pl 0 No Rank 2011-12-10 01:48:23
4871269 ltdstylo.com 0 No Rank 2011-12-10 01:48:26
4871270 lubedevices.com 0 No Rank 2011-12-10 01:48:29
4871271 belanjamaya.com 0 17857184 2011-12-10 01:48:30
4871272 orangehouse.com 0 No Rank 2011-12-10 01:48:32
4871273 zeneszinhaz.com 0 776728 2011-12-10 01:48:39
4871274 maxifilmizle.com 0 1016843 2011-12-10 01:48:40
4871275 austin-ipla.org 0 12911229 2011-12-10 01:48:41
4871276 maxidrill.net 0 No Rank 2011-12-10 01:48:46
4871277 blogandgrow.com 0 19334168 2011-12-10 01:48:46
4871278 botanoadopt.org 0 16926228 2011-12-10 01:48:53
4871279 club-campus.com 0 No Rank 2011-12-10 01:48:54
4871280 detoxtip.com 0 No Rank 2011-12-10 01:48:55
4871281 jordanmotors.ie 0 2642130 2011-12-10 01:48:56
4871282 ansarrynail.com 0 7970978 2011-12-10 01:49:01
4871283 seodistribute.info 0 No Rank 2011-12-10 01:49:07
4871284 amb-danemark.fr 0 No Rank 2011-12-10 01:49:08
4871285 debranderij.com 0 9278974 2011-12-10 01:49:09
4871286 yuuki-tokei.com 0 5915839 2011-12-10 01:49:09
4871287 chidorimaru.net 0 No Rank 2011-12-10 01:49:11
4871288 meteobunyol.com 0 19802626 2011-12-10 01:49:13
4871289 me-infomobil.de 0 14339721 2011-12-10 01:49:14
4871290 instantbest.com 0 No Rank 2011-12-10 01:49:15
4871291 luna-office.com 0 No Rank 2011-12-10 01:49:16
4871292 maxfighting.com 0 21723379 2011-12-10 01:49:19
4871293 turkiyemirc.org 0 1651196 2011-12-10 01:49:21
4871294 lostyourdata.org 0 6110579 2011-12-10 01:49:21
4871295 maxdbs.com 0 No Rank 2011-12-10 01:49:22
4871296 allstardogs.com 0 7525319 2011-12-10 01:49:23
4871297 brokenlink.info 0 7731198 2011-12-10 01:49:23
4871298 avirtualbiz.com 0 No Rank 2011-12-10 01:49:24
4871299 mavbch.com 0 No Rank 2011-12-10 01:49:25
4871300 mauisands4e.com 0 No Rank 2011-12-10 01:49:27
4871301 ever-monaco.com 0 4276598 2011-12-10 01:49:28
4871302 accessorize.com 0 41306 2011-12-10 01:49:30
4871303 maui.lairdwilly.ws 0 No Rank 2011-12-10 01:49:30
4871304 martinisonmain.com 0 23545278 2011-12-10 01:49:31
4871305 family-huber.de 0 No Rank 2011-12-10 01:49:33
4871306 matza.org 0 No Rank 2011-12-10 01:49:37
4871307 meltingpot4adultfun.com 0 18828576 2011-12-10 01:49:39
4871308 mattwalsh.de 0 No Rank 2011-12-10 01:49:41
4871309 zhs-muenchen.de 0 1057120 2011-12-10 01:49:45
4871310 albert-fendl.de 0 No Rank 2011-12-10 01:49:45
4871311 avatar-land.com 0 22135874 2011-12-10 01:49:47
4871312 mattseagleproject.com 0 No Rank 2011-12-10 01:49:49
4871313 mattmeis.com 0 3039909 2011-12-10 01:49:52
4871314 innov8india.com 0 1596928 2011-12-10 01:49:52
4871315 mattkeyart.com 0 No Rank 2011-12-10 01:49:55
4871316 mattiskurkela.fi 0 No Rank 2011-12-10 01:49:59
4871317 gameland.moo.jp 0 1820 2011-12-10 01:50:00
4871318 flatuphobia.com 0 No Rank 2011-12-10 01:50:00
4871319 matthewschoice.com 0 2011011 2011-12-10 01:50:02
4871320 androidwiki.com 0 602529 2011-12-10 01:50:04
4871321 matthewquick.net 0 No Rank 2011-12-10 01:50:11
4871322 matthewkurowski.com 0 No Rank 2011-12-10 01:50:14
4871323 1-2-free.de 0 No Rank 2011-12-10 01:50:15
4871324 matthewennisphotography.com 0 No Rank 2011-12-10 01:50:18
4871325 lymphoma.org.uk 0 8604696 2011-12-10 01:50:18
4871326 w4questions.com 0 14055390 2011-12-10 01:50:19
4871327 matthewdruin.com 0 12153240 2011-12-10 01:50:25
4871328 tramtron.com.vn 0 No Rank 2011-12-10 01:50:25
4871329 mattblatteggharbor.com 0 No Rank 2011-12-10 01:50:27
4871330 floranova.co.uk 0 No Rank 2011-12-10 01:50:28
4871331 event-planer.ch 0 No Rank 2011-12-10 01:50:30
4871332 matllib.org 0 No Rank 2011-12-10 01:50:31
4871333 cntsscut.org.br 0 13426358 2011-12-10 01:50:33
4871334 g.sugamomap.com 0 4516698 2011-12-10 01:50:33
4871335 mathdoesntsuck.com 0 2248495 2011-12-10 01:50:34
4871336 kunii.vis.ne.jp 0 24484 2011-12-10 01:50:34
4871337 starservices.us 0 No Rank 2011-12-10 01:50:35
4871338 materialflows.net 0 No Rank 2011-12-10 01:50:40
4871339 mikenorrismotorsports.com 0 8054706 2011-12-10 01:50:40
4871340 matchwing.com 0 22653681 2011-12-10 01:50:43
4871341 mistresskatina.com 0 No Rank 2011-12-10 01:50:45
4871342 ewritingpad.com 0 22857888 2011-12-10 01:50:45
4871343 schwindt-pr.com 0 33812 2011-12-10 01:50:46
4871344 nappsystems.com 0 14062989 2011-12-10 01:50:47
4871345 myfavoritedownload.com 0 No Rank 2011-12-10 01:50:49
4871346 innovations.org 0 No Rank 2011-12-10 01:50:50
4871347 masteryofsales.com 0 3609774 2011-12-10 01:50:52
4871348 momsallentownwest.com 0 No Rank 2011-12-10 01:50:53
4871349 masterveil-eu.com 0 No Rank 2011-12-10 01:50:56
4871350 masterdecoycarver.com 0 No Rank 2011-12-10 01:50:58
4871351 epsteinderm.com 0 No Rank 2011-12-10 01:51:01
4871352 masterchos-tkd.com 0 No Rank 2011-12-10 01:51:02
4871353 thesaltybox.com 0 1533028 2011-12-10 01:51:02
4871354 thesalesjob.com 0 1401016 2011-12-10 01:51:03
4871355 krallpartner.de 0 17370258 2011-12-10 01:51:03
4871356 tareanet.edu.co 0 440620 2011-12-10 01:51:05
4871357 master-thatchers.com 0 5540143 2011-12-10 01:51:10
4871358 masinskaobrada.com 0 No Rank 2011-12-10 01:51:12
4871359 masheepwool.org 0 No Rank 2011-12-10 01:51:14
4871360 marzulloconstruction.com 0 No Rank 2011-12-10 01:51:17
4871361 marylandwindshields.com 0 No Rank 2011-12-10 01:51:20
4871362 dodo-geneki.com 0 No Rank 2011-12-10 01:51:22
4871363 gregheather.com 0 No Rank 2011-12-10 01:51:23
4871364 marxwildwest.com 0 13735674 2011-12-10 01:51:25
4871365 larchmontyc.org 0 5593041 2011-12-10 01:51:25
4871366 pendulumwarehouse.com 0 9609380 2011-12-10 01:51:27
4871367 martinroy.ca 0 14438500 2011-12-10 01:51:27
4871368 anniesidley.com 0 No Rank 2011-12-10 01:51:28
4871369 sailtraining.de 0 3640545 2011-12-10 01:51:28
4871370 martellotrainingcentre.com 0 No Rank 2011-12-10 01:51:36
4871371 marshallsmithbuilders.com 0 No Rank 2011-12-10 01:51:45
4871372 freepcaweek.com 0 No Rank 2011-12-10 01:51:47
4871373 marsenshow.nl 0 24297147 2011-12-10 01:51:52
4871374 b2b-modules.com 0 23876468 2011-12-10 01:51:54
4871375 marlowetatianagranados.com 0 No Rank 2011-12-10 01:51:56
4871376 marleydelarose.com 0 No Rank 2011-12-10 01:51:59
4871377 film-inndir.com 0 No Rank 2011-12-10 01:51:59
4871378 rocketforge.org 0 No Rank 2011-12-10 01:52:00
4871379 hooversfarm.com 0 No Rank 2011-12-10 01:52:00
4871380 marlenezerweck.com 0 No Rank 2011-12-10 01:52:02
4871381 nabuenos.com 0 No Rank 2011-12-10 01:52:04
4871382 myparadisecottage.com 0 No Rank 2011-12-10 01:52:10
4871383 marlanindustries.com 0 11322711 2011-12-10 01:52:10
4871384 warequip.com.au 0 1332764 2011-12-10 01:52:11
4871385 markturnerfloral.com 0 No Rank 2011-12-10 01:52:15
4871386 lukostrelbapv.cz 0 No Rank 2011-12-10 01:52:16
4871387 articles.org.ru 0 227921 2011-12-10 01:52:17
4871388 marktan.com 0 No Rank 2011-12-10 01:52:18
4871389 keuanganlsm.com 0 362262 2011-12-10 01:52:18
4871390 markoverton.com 0 No Rank 2011-12-10 01:52:20
4871391 storerotica.net 0 2115678 2011-12-10 01:52:20
4871392 mihalicenco.com 0 16778387 2011-12-10 01:52:21
4871393 stein-inn.co.uk 0 No Rank 2011-12-10 01:52:23
4871394 markmtuci.ru 0 No Rank 2011-12-10 01:52:25
4871395 marketingsystemsmanagement.com 0 No Rank 2011-12-10 01:52:26
4871396 wbfinancial.com 0 No Rank 2011-12-10 01:52:26
4871397 pmamortgage.com 0 No Rank 2011-12-10 01:52:27
4871398 marketingassocinc.com 0 No Rank 2011-12-10 01:52:30
4871399 market-b2b.com 0 16906700 2011-12-10 01:52:33
4871400 marjorierose.com 0 No Rank 2011-12-10 01:52:38
4871401 maritimepaper.com 0 19443643 2011-12-10 01:52:41
4871402 yeukientruc.com 0 1227162 2011-12-10 01:52:44
4871403 campinginsel.de 0 9620313 2011-12-10 01:52:45
4871404 mariospaintingpeabody.com 0 No Rank 2011-12-10 01:52:45
4871405 marinerstyle.com 0 No Rank 2011-12-10 01:52:47
4871406 tienersnaakt.nl 0 8058930 2011-12-10 01:52:48
4871407 naughtyboyshypnosisshow.com 0 No Rank 2011-12-10 01:52:52
4871408 victorypoint.de 0 2507205 2011-12-10 01:52:54
4871409 marilynwallfiberartist.com 0 No Rank 2011-12-10 01:52:55
4871410 marketinghand.com 0 No Rank 2011-12-10 01:52:57
4871411 u3community.com 0 18370913 2011-12-10 01:53:00
4871412 newcovenanteyes.com 0 5610388 2011-12-10 01:53:01
4871413 lovelaoxiang.com 0 No Rank 2011-12-10 01:53:02
4871414 loveitalia.org 0 No Rank 2011-12-10 01:53:05
4871415 tp3-uakk.8m.net 0 3407 2011-12-10 01:53:05
4871416 newnessoflife.com 0 No Rank 2011-12-10 01:53:06
4871417 plattformen.net 0 No Rank 2011-12-10 01:53:09
4871418 lovefamerecords.com 0 No Rank 2011-12-10 01:53:10
4871419 loveheals.com.my 0 No Rank 2011-12-10 01:53:10
4871420 saint-hilaire-inc.com 0 No Rank 2011-12-10 01:53:10
4871421 lovedrome.com 0 No Rank 2011-12-10 01:53:16
4871422 lounemeth.com 0 No Rank 2011-12-10 01:53:19
4871423 narty.szus.info 0 No Rank 2011-12-10 01:53:19
4871424 intelliants.com 0 No Rank 2011-12-10 01:53:22
4871425 louisianaunitedstates.com 0 No Rank 2011-12-10 01:53:22
4871426 louislombardo.com 0 20315929 2011-12-10 01:53:24
4871427 lotter-results.com 0 No Rank 2011-12-10 01:53:30
4871428 premiermort.com 0 No Rank 2011-12-10 01:53:32
4871429 loto6toro.com 0 No Rank 2011-12-10 01:53:33
4871430 seidokaikan.com 0 7524757 2011-12-10 01:53:34
4871431 ipapipez.blogspot.com 0 No Rank 2011-12-10 01:53:37
4871432 lornamartin.com 0 25679080 2011-12-10 01:53:38
4871433 robecodirect.nl 0 292236 2011-12-10 01:53:39
4871434 laserexpertstech.ca 0 No Rank 2011-12-10 01:53:40
4871435 loriwinslow.com 0 No Rank 2011-12-10 01:53:40
4871436 lorenet.org 0 No Rank 2011-12-10 01:53:44
4871437 lorel2.com 0 No Rank 2011-12-10 01:53:44
4871438 ilquotidiano.it 0 230104 2011-12-10 01:53:46
4871439 lopezfamilysite.com 0 11010450 2011-12-10 01:53:47
4871440 healthyliving.blogtides.com 0 No Rank 2011-12-10 01:53:48
4871441 longtrailpt.com 0 No Rank 2011-12-10 01:53:51
4871442 shinchou123.com 0 No Rank 2011-12-10 01:53:52
4871443 longosloft.com 0 No Rank 2011-12-10 01:53:53
4871444 longbeachbailbondservice.info 0 No Rank 2011-12-10 01:53:55
4871445 lonestarweimclub.org 0 21211116 2011-12-10 01:53:56
4871446 lynnfield.ma.us 0 No Rank 2011-12-10 01:53:57
4871447 pirotrading.com 0 No Rank 2011-12-10 01:54:02
4871448 jessebarnes.com 0 No Rank 2011-12-10 01:54:05
4871449 loismarketing.com 0 4793857 2011-12-10 01:54:06
4871450 log-college.net 0 No Rank 2011-12-10 01:54:08
4871451 locksmithwoodside.net 0 23273491 2011-12-10 01:54:13
4871452 bazinasfurs.com 0 2585978 2011-12-10 01:54:14
4871453 lockemup.org 0 23192658 2011-12-10 01:54:15
4871454 lockads.com 0 2394202 2011-12-10 01:54:16
4871455 matsuya1673.com 0 5801226 2011-12-10 01:54:19
4871456 locations-launayblot.com 0 No Rank 2011-12-10 01:54:20
4871457 brunettes11374.chat2sexs.info 0 No Rank 2011-12-10 01:54:22
4871458 locationlesmarecottes.ch 0 7797740 2011-12-10 01:54:22
4871459 latstnews.blogspot.com 0 18596545 2011-12-10 01:54:22
4871460 locallender.net 0 15510060 2011-12-10 01:54:23
4871461 loaneasypayday.org 0 14962594 2011-12-10 01:54:25
4871462 mechanisatie.nl 0 840577 2011-12-10 01:54:27
4871463 lmed.ru 0 No Rank 2011-12-10 01:54:31
4871464 seasidehaunt.com 0 No Rank 2011-12-10 01:54:31
4871465 1000plyteliu.lt 0 1714279 2011-12-10 01:54:31
4871466 cerveiranova.pt 0 No Rank 2011-12-10 01:54:31
4871467 eileenoster.com 0 No Rank 2011-12-10 01:54:38
4871468 lk-star.com 0 22279335 2011-12-10 01:54:39
4871469 heiankaku.co.jp 0 1357725 2011-12-10 01:54:42
4871470 oceanfrontmyrtlebeachcondorental.com 0 25277187 2011-12-10 01:54:44
4871471 livre-de-cristal.fr 0 No Rank 2011-12-10 01:54:44
4871472 livingstoneskona.com 0 No Rank 2011-12-10 01:54:47
4871473 oaklandkarateandkickboxing.com 0 13146181 2011-12-10 01:54:47
4871474 lnscolumbia.org 0 No Rank 2011-12-10 01:54:50
4871475 nurturedheartpath.com 0 No Rank 2011-12-10 01:54:51
4871476 carnetduski.com 0 4693615 2011-12-10 01:54:53
4871477 livingdepot.com 0 No Rank 2011-12-10 01:54:53
4871478 livee-livee.com 0 26252440 2011-12-10 01:54:56
4871479 livesunnlake.com 0 15868087 2011-12-10 01:54:56
4871480 livetlekermassan.se 0 No Rank 2011-12-10 01:54:59
4871481 liveoakvillages.com 0 6102715 2011-12-10 01:55:01
4871482 liverpooltv.com 0 6750513 2011-12-10 01:55:03
4871483 my-bike-shop.co.uk 0 No Rank 2011-12-10 01:55:09
4871484 liveforexnews.com 0 3933407 2011-12-10 01:55:10
4871485 livefastnyc.com 0 3995994 2011-12-10 01:55:10
4871486 johokan.hams.jp 0 2524517 2011-12-10 01:55:11
4871487 urbandojang.com 0 20404867 2011-12-10 01:55:12
4871488 rulimpex.com.pl 0 No Rank 2011-12-10 01:55:14
4871489 liveatautumnpark.com 0 19522806 2011-12-10 01:55:14
4871490 live.endurance.fi 0 3928753 2011-12-10 01:55:15
4871491 andreharden.com 0 No Rank 2011-12-10 01:55:17
4871492 litware.net 0 No Rank 2011-12-10 01:55:19
4871493 wazzuevents.com 0 No Rank 2011-12-10 01:55:20
4871494 littlerockchurch.org 0 22093383 2011-12-10 01:55:23
4871495 247townhall.org 0 No Rank 2011-12-10 01:55:23
4871496 littletreephotography.com 0 22093390 2011-12-10 01:55:24
4871497 littlepirateparties.com 0 No Rank 2011-12-10 01:55:26
4871498 ypernomarhia.gr 0 5631827 2011-12-10 01:55:27
4871499 spmtracking.com 0 No Rank 2011-12-10 01:55:27
4871500 littlemyanmar.com 0 No Rank 2011-12-10 01:55:28
4871501 weskicanada.com 0 No Rank 2011-12-10 01:55:29
4871502 nwtfchapter.org 0 No Rank 2011-12-10 01:55:29
4871503 littleguyracing.com 0 No Rank 2011-12-10 01:55:29
4871504 gastronomica.fr 0 3727952 2011-12-10 01:55:30
4871505 equimagenes.com 0 3147255 2011-12-10 01:55:32
4871506 lithicdesigns.com 0 No Rank 2011-12-10 01:55:34
4871507 wppwangpong.com 0 17993998 2011-12-10 01:55:35
4871508 philippfoltz.de 0 No Rank 2011-12-10 01:55:36
4871509 orange-county-batting-cages.com 0 No Rank 2011-12-10 01:55:36
4871510 villanefeli.com 0 No Rank 2011-12-10 01:55:38
4871511 schoolangels.be 0 533404 2011-12-10 01:55:38
4871512 home-rebirth.jp 0 No Rank 2011-12-10 01:55:40
4871513 listwyled.com 0 No Rank 2011-12-10 01:55:41
4871514 pagliaismankato.com 0 16270952 2011-12-10 01:55:41
4871515 livekimcams.com 0 No Rank 2011-12-10 01:55:43
4871516 registrykit.com 0 2469820 2011-12-10 01:55:43
4871517 listacity.com 0 No Rank 2011-12-10 01:55:45
4871518 oliviasshop.com 0 15673758 2011-12-10 01:55:46
4871519 praxis-adams.de 0 No Rank 2011-12-10 01:55:48
4871520 pokertienda.com 0 12808176 2011-12-10 01:55:48
4871521 lisrajesh.com 0 No Rank 2011-12-10 01:55:48
4871522 kiwitourism.com 0 4245202 2011-12-10 01:55:50
4871523 student-lib.net 0 2143497 2011-12-10 01:55:51
4871524 lisabreslow.com 0 No Rank 2011-12-10 01:55:51
4871525 scs.szczecin.pl 0 2789727 2011-12-10 01:55:52
4871526 litewriting.com 0 No Rank 2011-12-10 01:55:53
4871527 lipstickhomicide.com 0 No Rank 2011-12-10 01:55:55
4871528 ettighoffer.com 0 11009972 2011-12-10 01:55:56
4871529 electronicum.de 0 1147251 2011-12-10 01:55:57
4871530 lions.su 0 No Rank 2011-12-10 01:56:03
4871531 lionpetro.com 0 No Rank 2011-12-10 01:56:03
4871532 printmaxusa.com 0 No Rank 2011-12-10 01:56:04
4871533 ernesthomes.com 0 3518015 2011-12-10 01:56:04
4871534 barackobama.net 0 20494506 2011-12-10 01:56:05
4871535 lionlane.com 0 No Rank 2011-12-10 01:56:11
4871536 calleverett.com 0 No Rank 2011-12-10 01:56:14
4871537 daltongrows.biz 0 22760774 2011-12-10 01:56:15
4871538 lionheartinstitute.com 0 No Rank 2011-12-10 01:56:17
4871539 sankyo-kagu.com 0 No Rank 2011-12-10 01:56:18
4871540 linuxphonesoftware.com 0 No Rank 2011-12-10 01:56:18
4871541 heavensrock.com 0 1440556 2011-12-10 01:56:19
4871542 linnarchitects.com 0 16666049 2011-12-10 01:56:20
4871543 linksinternational.org 0 No Rank 2011-12-10 01:56:21
4871544 ladyssecret.com 0 No Rank 2011-12-10 01:56:24
4871545 superbom.com.br 0 4160252 2011-12-10 01:56:26
4871546 internomoda.com 0 No Rank 2011-12-10 01:56:28
4871547 politicaomu.org 0 No Rank 2011-12-10 01:56:29
4871548 lingua-bohemica.com 0 No Rank 2011-12-10 01:56:30
4871549 partspig.com 0 No Rank 2011-12-10 01:56:32
4871550 zrht.cnfish.com 0 40865 2011-12-10 01:56:33
4871551 eaiindustry.org 0 No Rank 2011-12-10 01:56:33
4871552 lindastudio.com 0 No Rank 2011-12-10 01:56:33
4871553 lindozero.ru 0 No Rank 2011-12-10 01:56:34
4871554 lindakanhetmaken.nl 0 No Rank 2011-12-10 01:56:37
4871555 scifi-guide.net 0 4129483 2011-12-10 01:56:40
4871556 sealineboats.ru 0 No Rank 2011-12-10 01:56:40
4871557 patientwait.com 0 17196952 2011-12-10 01:56:41
4871558 scm-digital.net 0 No Rank 2011-12-10 01:56:41
4871559 lilybeauty.nl 0 No Rank 2011-12-10 01:56:42
4871560 hardproxies.com 0 9226356 2011-12-10 01:56:44
4871561 shopmax.ir 0 1476352 2011-12-10 01:56:44
4871562 paulguard.com 0 No Rank 2011-12-10 01:56:45
4871563 pblprograms.com 0 No Rank 2011-12-10 01:56:46
4871564 lilianasvilla.gr 0 No Rank 2011-12-10 01:56:49
4871565 lillelanuit.com 0 596468 2011-12-10 01:56:49
4871566 banobras.gob.mx 0 3919599 2011-12-10 01:56:50
4871567 tischtennis.biz 0 364215 2011-12-10 01:56:50
4871568 likovnjaci.com 0 No Rank 2011-12-10 01:56:51
4871569 lili-art.com.pl 0 No Rank 2011-12-10 01:56:53
4871570 4yousolution.blogspot.com 0 25179718 2011-12-10 01:56:54
4871571 textstore.co.il 0 17710446 2011-12-10 01:56:56
4871572 u.baywaters.cellsqueez.hop.clickbank.net 0 808 2011-12-10 01:56:58
4871573 decruzeiros.com 0 1264158 2011-12-10 01:57:02
4871574 lifechurchtimaru.com 0 No Rank 2011-12-10 01:57:09
4871575 baers-place.com 0 No Rank 2011-12-10 01:57:10
4871576 series-tele.net 0 21527071 2011-12-10 01:57:11
4871577 lifeanglictina.cz 0 No Rank 2011-12-10 01:57:14
4871578 jayrosales.ecrater.com 0 3322 2011-12-10 01:57:14
4871579 seoposicion.com 0 260007 2011-12-10 01:57:15
4871580 viadercamps.com 0 No Rank 2011-12-10 01:57:19
4871581 liesma.com 0 No Rank 2011-12-10 01:57:23
4871582 capestudies.com 0 1383423 2011-12-10 01:57:23
4871583 the-led-warehouse.co.uk 0 No Rank 2011-12-10 01:57:24
4871584 virtualities.it 0 No Rank 2011-12-10 01:57:25
4871585 lichtzeichen.org 0 No Rank 2011-12-10 01:57:27
4871586 thedirectory.ws 0 No Rank 2011-12-10 01:57:36
4871587 nibbler.silktide.com 0 14725 2011-12-10 01:57:39
4871588 toodarkpark.net 0 1978648 2011-12-10 01:57:40
4871589 bogorrayafc.com 0 3796215 2011-12-10 01:57:45
4871590 libertygrp.com 0 No Rank 2011-12-10 01:57:47
4871591 pcproblemlos.de 0 12554702 2011-12-10 01:57:47
4871592 elrancahuaso.cl 0 410233 2011-12-10 01:57:48
4871593 permanentmakeupbyshanan.com 0 No Rank 2011-12-10 01:57:48
4871594 migliorinvestimento.blogspot.com 0 No Rank 2011-12-10 01:57:52
4871595 paulmariano.com 0 No Rank 2011-12-10 01:57:54
4871596 lhortho.com 0 No Rank 2011-12-10 01:57:54
4871597 billigfluege.lt 0 No Rank 2011-12-10 01:57:57
4871598 qianwei.20m.com 0 24401 2011-12-10 01:57:57
4871599 aigle-online.de 0 No Rank 2011-12-10 01:57:59
4871600 petergrantmiami.com 0 No Rank 2011-12-10 01:58:02
4871601 oikou.pekori.to 0 138776 2011-12-10 01:58:04
4871602 lowertownwine.com 0 22039997 2011-12-10 01:58:06
4871603 louannhoman.com 0 No Rank 2011-12-10 01:58:10
4871604 lexcar-dv.ru 0 No Rank 2011-12-10 01:58:11
4871605 signoftrask.com 0 No Rank 2011-12-10 01:58:12
4871606 karriereline.de 0 23871466 2011-12-10 01:58:12
4871607 lowelloverhead.com 0 No Rank 2011-12-10 01:58:14
4871608 lewisandclarklamps.com 0 No Rank 2011-12-10 01:58:17
4871609 lowcountrysoutherngospel.com 0 No Rank 2011-12-10 01:58:21
4871610 lovepawspoodles.com 0 No Rank 2011-12-10 01:58:25
4871611 personalinjuryattorneyhub.com 0 No Rank 2011-12-10 01:58:27
4871612 shemalelive.com 0 No Rank 2011-12-10 01:58:27
4871613 levoltz.com 0 130118 2011-12-10 01:58:28
4871614 genshiryoku.com 0 No Rank 2011-12-10 01:58:30
4871615 gstaadschool.ch 0 7317053 2011-12-10 01:58:36
4871616 leveldesign.it 0 No Rank 2011-12-10 01:58:36
4871617 levakhsanov.net 0 21857225 2011-12-10 01:58:40
4871618 inter-act.co.il 0 No Rank 2011-12-10 01:58:41
4871619 lormarlogic.com 0 11094957 2011-12-10 01:58:42
4871620 nextautonow.com 0 11373380 2011-12-10 01:58:42
4871621 lesviandesensauce.free.fr 0 No Rank 2011-12-10 01:58:43
4871622 dahsyat.org 0 No Rank 2011-12-10 01:58:44
4871623 lestruffes.com 0 11611388 2011-12-10 01:58:46
4871624 imboden-bike.ch 0 19458177 2011-12-10 01:58:46
4871625 staffcarpet.com 0 No Rank 2011-12-10 01:58:48
4871626 lestravaux2b.com 0 No Rank 2011-12-10 01:58:50
4871627 lesquall.com 0 No Rank 2011-12-10 01:58:53
4871628 blijstuderen.nl 0 7000816 2011-12-10 01:58:54
4871629 3maturetube.com 0 234876 2011-12-10 01:58:55
4871630 hyperwriting.de 0 3297762 2011-12-10 01:58:57
4871631 okuboclinic.com 0 No Rank 2011-12-10 01:59:00
4871632 lesgonflablesmartin.com 0 No Rank 2011-12-10 01:59:00
4871633 wakaba-gift.com 0 No Rank 2011-12-10 01:59:01
4871634 lerelaisdumiel.com 0 No Rank 2011-12-10 01:59:03
4871635 h-estate.x0.com 0 6206 2011-12-10 01:59:03
4871636 sblogghiamo.net 0 8131510 2011-12-10 01:59:07
4871637 shouwabashi.com 0 No Rank 2011-12-10 01:59:11
4871638 zukerman.com.br 0 330585 2011-12-10 01:59:12
4871639 leonorsoaresartes.com 0 No Rank 2011-12-10 01:59:13
4871640 phoenixartrestoration.com 0 9928731 2011-12-10 01:59:14
4871641 lemontile.de 0 No Rank 2011-12-10 01:59:17
4871642 pistaciaglobal.com 0 4552290 2011-12-10 01:59:20
4871643 lemongrassrestaurants.com 0 7427568 2011-12-10 01:59:22
4871644 playingclassicalguitar.com 0 No Rank 2011-12-10 01:59:24
4871645 mediagraphic.it 0 17201044 2011-12-10 01:59:25
4871646 office-work.net 0 2152491 2011-12-10 01:59:29
4871647 plazatireandautoservice.com 0 12473048 2011-12-10 01:59:30
4871648 m-tachibana.com 0 No Rank 2011-12-10 01:59:31
4871649 legulcers-options.com 0 No Rank 2011-12-10 01:59:35
4871650 techviews.co.uk 0 20324792 2011-12-10 01:59:37
4871651 howzatmedia.com 0 4345983 2011-12-10 01:59:37
4871652 dunxoxqyk.cwahi.net 0 52318 2011-12-10 01:59:41
4871653 legionenterprises.co.nz 0 No Rank 2011-12-10 01:59:41
4871654 rtpijobs.org.uk 0 No Rank 2011-12-10 01:59:42
4871655 volker-doerk.de 0 322106 2011-12-10 01:59:44
4871656 legionellae.org 0 5512268 2011-12-10 01:59:44
4871657 beholdsigns.com 0 11738524 2011-12-10 01:59:46
4871658 legendarylog.com 0 11049824 2011-12-10 01:59:47
4871659 ultima-hora.net 0 No Rank 2011-12-10 01:59:57
4871660 hncredit.gov.cn 0 251686 2011-12-10 01:59:57
4871661 legalallied.com 0 No Rank 2011-12-10 01:59:59
4871662 muslumanlar.com 0 3122743 2011-12-10 01:59:59
4871663 legacypropane.com 0 15028953 2011-12-10 02:00:01
4871664 lectronix.co.uk 0 No Rank 2011-12-10 02:00:07
4871665 edandjacqui.com 0 13487124 2011-12-10 02:00:10
4871666 3kwholesale.com 0 22841445 2011-12-10 02:00:11
4871667 ganardinero.muiscablog.com 0 No Rank 2011-12-10 02:00:12
4871668 cindywenger.com 0 No Rank 2011-12-10 02:00:14
4871669 lefrenchbulldog.com 0 16786652 2011-12-10 02:00:16
4871670 greenstumps.com 0 3223426 2011-12-10 02:00:17
4871671 leesleawoodwindowcleaning.com 0 No Rank 2011-12-10 02:00:20
4871672 leegraycpa.com 0 23271830 2011-12-10 02:00:23
4871673 ledxmass.com 0 No Rank 2011-12-10 02:00:26
4871674 led-hdtv-sale.us 0 6823474 2011-12-10 02:00:29
4871675 direct-ahead.cz 0 No Rank 2011-12-10 02:00:31
4871676 pressurewasherproducts.com 0 5859616 2011-12-10 02:00:31
4871677 led-elite.com 0 9150893 2011-12-10 02:00:31
4871678 lecsmart.com 0 No Rank 2011-12-10 02:00:34
4871679 schoolframe.com 0 No Rank 2011-12-10 02:00:35
4871680 computersoft.de 0 16771055 2011-12-10 02:00:35
4871681 teresaciceri.eu 0 16586045 2011-12-10 02:00:37
4871682 lech-pol.com.pl 0 No Rank 2011-12-10 02:00:37
4871683 qualityhomeinspectionsofma.com 0 22104873 2011-12-10 02:00:39
4871684 carltontv.co.uk 0 No Rank 2011-12-10 02:00:40
4871685 lebao.free.fr 0 No Rank 2011-12-10 02:00:42
4871686 leavenworthpetlodge.com 0 No Rank 2011-12-10 02:00:45
4871687 smarterbull.com 0 No Rank 2011-12-10 02:00:45
4871688 leavenworthcoffeehouse.org 0 No Rank 2011-12-10 02:00:47
4871689 leshopparis.com 0 753322 2011-12-10 02:00:49
4871690 ranchrodeo.net 0 15082281 2011-12-10 02:00:50
4871691 learnsalsadc.com 0 No Rank 2011-12-10 02:00:51
4871692 learnrealty.net 0 No Rank 2011-12-10 02:00:54
4871693 leanneheller.com 0 No Rank 2011-12-10 02:00:57
4871694 smithbutler.com 0 1527036 2011-12-10 02:00:58
4871695 tobaccoweek.com 0 No Rank 2011-12-10 02:01:00
4871696 leadershipworks.com 0 8695100 2011-12-10 02:01:06
4871697 manosvetaine.lt 0 2657015 2011-12-10 02:01:06
4871698 midi-apolis.tumblr.com 0 23940017 2011-12-10 02:01:08
4871699 leadershipinmotion.org 0 No Rank 2011-12-10 02:01:10
4871700 ldoa.org 0 No Rank 2011-12-10 02:01:15
4871701 ekonometria.com 0 7819380 2011-12-10 02:01:15
4871702 ld-partners.com 0 No Rank 2011-12-10 02:01:18
4871703 georgeallen.com 0 1405827 2011-12-10 02:01:22
4871704 msweischlitz.de 0 13339810 2011-12-10 02:01:23
4871705 lchayden.com 0 No Rank 2011-12-10 02:01:23
4871706 harpfestival.nl 0 15741871 2011-12-10 02:01:23
4871707 lbcreative.com 0 No Rank 2011-12-10 02:01:27
4871708 inrs.uquebec.ca 0 87946 2011-12-10 02:01:31
4871709 lawyersofnepal.com 0 26073904 2011-12-10 02:01:34
4871710 lawrencerealtymv.com 0 No Rank 2011-12-10 02:01:37
4871711 hearingaidz.com 0 18890764 2011-12-10 02:01:38
4871712 lawproinc.com 0 23145134 2011-12-10 02:01:39
4871713 hjelmarsnas.com 0 No Rank 2011-12-10 02:01:40
4871714 matttrailer.com 0 424185 2011-12-10 02:01:40
4871715 liquesphere.com 0 18553433 2011-12-10 02:01:41
4871716 lawnsharks.org 0 21856802 2011-12-10 02:01:42
4871717 forumlaunch.com 0 No Rank 2011-12-10 02:01:44
4871718 lawnrangerslandscape.com 0 No Rank 2011-12-10 02:01:48
4871719 lawnappointment.com 0 No Rank 2011-12-10 02:01:52
4871720 shika-masuda.jp 0 No Rank 2011-12-10 02:01:54
4871721 lawblog.gr 0 1663825 2011-12-10 02:01:55
4871722 mymagicbaby.com 0 No Rank 2011-12-10 02:01:56
4871723 jeaniezentz.com 0 No Rank 2011-12-10 02:01:56
4871724 laurentianllc.com 0 No Rank 2011-12-10 02:02:00
4871725 dynaexports.com 0 No Rank 2011-12-10 02:02:01
4871726 lavcopricetech.com 0 No Rank 2011-12-10 02:02:01
4871727 mediwound.co.il 0 No Rank 2011-12-10 02:02:01
4871728 laurenfredericks.com 0 22781833 2011-12-10 02:02:03
4871729 monsterpenis.de 0 No Rank 2011-12-10 02:02:05
4871730 glanzpunkt.info 0 No Rank 2011-12-10 02:02:05
4871731 lauraleesellshomes.com 0 No Rank 2011-12-10 02:02:06
4871732 fullbathrooms.com 0 2735087 2011-12-10 02:02:11
4871733 rapidrecoverysolution.com 0 772529 2011-12-10 02:02:13
4871734 laurajanestudios.com 0 No Rank 2011-12-10 02:02:14
4871735 lattoart.com 0 No Rank 2011-12-10 02:02:14
4871736 latanadelletigri.org 0 6587785 2011-12-10 02:02:16
4871737 ghcommunity.com 0 No Rank 2011-12-10 02:02:19
4871738 heinzegroup.com 0 No Rank 2011-12-10 02:02:21
4871739 remingtonwoodproducts.com 0 15444558 2011-12-10 02:02:23
4871740 lasikevaluation.com 0 No Rank 2011-12-10 02:02:24
4871741 laserak.fi 0 No Rank 2011-12-10 02:02:27
4871742 articlesmix.com 0 No Rank 2011-12-10 02:02:28
4871743 granadabowl.com 0 12633635 2011-12-10 02:02:29
4871744 laser-cosmetology-equipment.com 0 8126869 2011-12-10 02:02:32
4871745 rentaffordable.com 0 5097712 2011-12-10 02:02:32
4871746 mhtconveyor.com 0 No Rank 2011-12-10 02:02:32
4871747 chinajiping.com 0 14261759 2011-12-10 02:02:32
4871748 larryscascaderesource.com 0 23038292 2011-12-10 02:02:34
4871749 larryhunterministries.com 0 No Rank 2011-12-10 02:02:36
4871750 stopsmoking.net 0 1370696 2011-12-10 02:02:40
4871751 lareconnexion.net 0 18609489 2011-12-10 02:02:41
4871752 lasim.org 0 1878367 2011-12-10 02:02:41
4871753 larazalon.com 0 9407013 2011-12-10 02:02:44
4871754 klick-tipps.net 0 1004920 2011-12-10 02:02:46
4871755 yellowtom.co.uk 0 478794 2011-12-10 02:02:46
4871756 ifslearning.com 0 No Rank 2011-12-10 02:02:49
4871757 iptwiesbaden.de 0 16422908 2011-12-10 02:02:52
4871758 seawindcats.com 0 1785158 2011-12-10 02:02:53
4871759 sansabanews.com 0 4689897 2011-12-10 02:02:54
4871760 languedocholidayhome.com 0 No Rank 2011-12-10 02:02:56
4871761 tekton-arch.com 0 No Rank 2011-12-10 02:02:56
4871762 superfit247.com 0 No Rank 2011-12-10 02:02:57
4871763 showshemale.com 0 No Rank 2011-12-10 02:03:00
4871764 languagepatternstraining.com 0 No Rank 2011-12-10 02:03:02
4871765 slb-saarland.de 0 No Rank 2011-12-10 02:03:05
4871766 langmainternational.com 0 No Rank 2011-12-10 02:03:11
4871767 langieav.com 0 No Rank 2011-12-10 02:03:15
4871768 jlcredit.com.cn 0 8321991 2011-12-10 02:03:17
4871769 etkinpatent.com 0 2981434 2011-12-10 02:03:17
4871770 landonconstruction.net 0 No Rank 2011-12-10 02:03:19
4871771 landlockedfilms.com 0 No Rank 2011-12-10 02:03:22
4871772 kimurakenzo.com 0 No Rank 2011-12-10 02:03:25
4871773 landdirtcheap.com 0 No Rank 2011-12-10 02:03:25
4871774 hornoktees.com 0 843009 2011-12-10 02:03:28
4871775 landaffcreamery.com 0 No Rank 2011-12-10 02:03:28
4871776 langlandhotel.net 0 No Rank 2011-12-10 02:03:30
4871777 land-of-aryans.com 0 No Rank 2011-12-10 02:03:32
4871778 moneoman.gov.om 0 5982109 2011-12-10 02:03:32
4871779 lampropelten.ch 0 No Rank 2011-12-10 02:03:34
4871780 lambron.am 0 No Rank 2011-12-10 02:03:37
4871781 lamarcountyfootball.com 0 No Rank 2011-12-10 02:03:37
4871782 rhenejohns.com 0 No Rank 2011-12-10 02:03:40
4871783 lalasikespanol.com 0 25406428 2011-12-10 02:03:41
4871784 rentalhomekc.com 0 3953213 2011-12-10 02:03:44
4871785 lakshyafoundation.net 0 20766585 2011-12-10 02:03:45
4871786 lakeoconeeresorts.com 0 No Rank 2011-12-10 02:03:45
4871787 lakehighlandsproperties.com 0 No Rank 2011-12-10 02:03:48
4871788 robiepierceonedesignregatta.com 0 27124710 2011-12-10 02:03:48
4871789 lakedelavanhighlandsassociation.org 0 No Rank 2011-12-10 02:03:52
4871790 interlink.co.za 0 973343 2011-12-10 02:03:52
4871791 e-kopwansbw.com 0 8874667 2011-12-10 02:03:53
4871792 lake-travis-real-estate.com 0 3771468 2011-12-10 02:03:55
4871793 lailama.com 0 No Rank 2011-12-10 02:03:56
4871794 laicodc.com 0 6715552 2011-12-10 02:03:59
4871795 marfabrands.com 0 No Rank 2011-12-10 02:04:00
4871796 lagodiisabella.com 0 No Rank 2011-12-10 02:04:01
4871797 lafundacionsuenos.com 0 No Rank 2011-12-10 02:04:05
4871798 webkumbaram.com 0 3549932 2011-12-10 02:04:08
4871799 cavedaynava.org 0 No Rank 2011-12-10 02:04:08
4871800 fryzury.info.pl 0 585177 2011-12-10 02:04:08
4871801 karensplace.org 0 No Rank 2011-12-10 02:04:11
4871802 laestetica.org 0 6696589 2011-12-10 02:04:12
4871803 laforet-vendenheim.com 0 No Rank 2011-12-10 02:04:12
4871804 ladycommandosoftball.com 0 No Rank 2011-12-10 02:04:15
4871805 digitalcamerabinoculars.me 0 No Rank 2011-12-10 02:04:16
4871806 sunrisesw.co.uk 0 No Rank 2011-12-10 02:04:17
4871807 rooversonline.com 0 No Rank 2011-12-10 02:04:17
4871808 suncoastlug.org 0 No Rank 2011-12-10 02:04:22
4871809 asqsandiego.org 0 No Rank 2011-12-10 02:04:22
4871810 bridalcorner.ie 0 4229070 2011-12-10 02:04:24
4871811 launderland.com 0 No Rank 2011-12-10 02:04:24
4871812 lacluxor.com 0 No Rank 2011-12-10 02:04:25
4871813 lacasalogos.com 0 No Rank 2011-12-10 02:04:31
4871814 rustic-signs.com 0 24089942 2011-12-10 02:04:32
4871815 markingegno.biz 0 552158 2011-12-10 02:04:33
4871816 labmanagers.org 0 No Rank 2011-12-10 02:04:34
4871817 andrews-eng.com 0 No Rank 2011-12-10 02:04:37
4871818 laakarikeskussyke.fi 0 No Rank 2011-12-10 02:04:40
4871819 la-confidential-magazine.com 0 593202 2011-12-10 02:04:47
4871820 l-ayr.com 0 15084967 2011-12-10 02:04:49
4871821 havenkansas.com 0 No Rank 2011-12-10 02:04:51
4871822 secretsites.com 0 3188312 2011-12-10 02:04:52
4871823 sexamateure.biz 0 No Rank 2011-12-10 02:04:55
4871824 kycrimlaw.com 0 23144603 2011-12-10 02:04:56
4871825 kwmeetjesland.be 0 26660694 2011-12-10 02:04:59
4871826 heb-tongtai.com 0 14117876 2011-12-10 02:05:00
4871827 ladybelleshop.com 0 No Rank 2011-12-10 02:05:01
4871828 kwinanajuniorknights.com 0 No Rank 2011-12-10 02:05:02
4871829 samsedershow.tv 0 19506384 2011-12-10 02:05:03
4871830 resultit.com.au 0 22645437 2011-12-10 02:05:06
4871831 fansofdavid.com 0 2244189 2011-12-10 02:05:09
4871832 kwikmeals.com 0 22474789 2011-12-10 02:05:10
4871833 market-team.org 0 2643990 2011-12-10 02:05:12
4871834 skisunburst.com 0 2760838 2011-12-10 02:05:14
4871835 shell.amigo.net 0 5296018 2011-12-10 02:05:14
4871836 mvstreaming.com 0 4724477 2011-12-10 02:05:15
4871837 kvarnerexpo.com 0 No Rank 2011-12-10 02:05:15
4871838 kuzuru-subs.org 0 No Rank 2011-12-10 02:05:15
4871839 hpheaven.com.au 0 4478973 2011-12-10 02:05:18
4871840 kutruyapi.com 0 No Rank 2011-12-10 02:05:19
4871841 medical-info.de 0 No Rank 2011-12-10 02:05:23
4871842 kuno.dolcevitazenekar.hu 0 No Rank 2011-12-10 02:05:23
4871843 seattlemime.org 0 No Rank 2011-12-10 02:05:24
4871844 kulhudhuffushi.net 0 No Rank 2011-12-10 02:05:25
4871845 cathlife.com.tw 0 7961517 2011-12-10 02:05:28
4871846 kukuryk.com 0 No Rank 2011-12-10 02:05:28
4871847 rusticsoap.com 0 No Rank 2011-12-10 02:05:29
4871848 kuchyneskrine.cz 0 No Rank 2011-12-10 02:05:30
4871849 kuchyne-masiv.cz 0 No Rank 2011-12-10 02:05:32
4871850 kubu-pantai.com 0 17408573 2011-12-10 02:05:33
4871851 kubanske-doutniky-prodej.cz 0 No Rank 2011-12-10 02:05:36
4871852 ku-eichstaett.de 0 212838 2011-12-10 02:05:39
4871853 ktmpartshouse.com 0 No Rank 2011-12-10 02:05:39
4871854 icamaxibirsta.se 0 No Rank 2011-12-10 02:05:41
4871855 kruszywo.info 0 No Rank 2011-12-10 02:05:42
4871856 zhuanhuanqi.net 0 88601 2011-12-10 02:05:43
4871857 krudung.com 0 3835948 2011-12-10 02:05:47
4871858 krokodiliafarma.sk 0 No Rank 2011-12-10 02:05:47
4871859 littleswitz.com 0 No Rank 2011-12-10 02:05:50
4871860 kristeldurand.com 0 No Rank 2011-12-10 02:05:52
4871861 maroontress.com 0 No Rank 2011-12-10 02:05:53
4871862 kreweofreality.com 0 No Rank 2011-12-10 02:05:55
4871863 componiendo.com 0 No Rank 2011-12-10 02:05:56
4871864 kreweofbilge.com 0 23811848 2011-12-10 02:05:58
4871865 kreativink.net 0 No Rank 2011-12-10 02:05:59
4871866 rosettacode.org 0 124974 2011-12-10 02:06:01
4871867 kramerproperty.com 0 No Rank 2011-12-10 02:06:02
4871868 kraljeznica.info 0 26886404 2011-12-10 02:06:03
4871869 medizin-netz.de 0 470292 2011-12-10 02:06:03
4871870 asiantaylor.com 0 No Rank 2011-12-10 02:06:11
4871871 kowalik.4.pl 0 967622 2011-12-10 02:06:15
4871872 quartzltd.co.uk 0 4996309 2011-12-10 02:06:19
4871873 kovarstvi-tomsik.cz 0 No Rank 2011-12-10 02:06:20
4871874 comunecervia.it 0 308872 2011-12-10 02:06:22
4871875 kovalhomeimprovements.com 0 No Rank 2011-12-10 02:06:22
4871876 castleblock.com 0 11668110 2011-12-10 02:06:25
4871877 korowod.sdk.pl 0 9797513 2011-12-10 02:06:26
4871878 spiraldance.net 0 20226905 2011-12-10 02:06:27
4871879 koreasac.com 0 7521228 2011-12-10 02:06:27
4871880 trollhaugen.com 0 4198505 2011-12-10 02:06:30
4871881 kopen.at 0 No Rank 2011-12-10 02:06:33
4871882 korayemlakbuca.com 0 No Rank 2011-12-10 02:06:36
4871883 kooswerkt.nl 0 No Rank 2011-12-10 02:06:36
4871884 konungsberg.com 0 No Rank 2011-12-10 02:06:40
4871885 kookstudioalmere.nl 0 No Rank 2011-12-10 02:06:40
4871886 icamaxiuppsala.se 0 5364068 2011-12-10 02:06:41
4871887 icamaxihaninge.se 0 9528477 2011-12-10 02:06:43
4871888 kongepokalen.dk 0 8323920 2011-12-10 02:06:44
4871889 icamaxiborlange.se 0 No Rank 2011-12-10 02:06:47
4871890 konik-garnitury.pl 0 8781888 2011-12-10 02:06:48
4871891 konahouseforsale.com 0 No Rank 2011-12-10 02:06:48
4871892 kompasstools.com 0 No Rank 2011-12-10 02:06:51
4871893 komondorprotection.com 0 No Rank 2011-12-10 02:06:53
4871894 komodity.vydelavej.cz 0 2691495 2011-12-10 02:06:56
4871895 kollerbeck.com 0 No Rank 2011-12-10 02:07:02
4871896 kolobrzeg-urlop.eu 0 No Rank 2011-12-10 02:07:09
4871897 koigardens.com 0 No Rank 2011-12-10 02:07:11
4871898 kolibrydesign.com 0 22321478 2011-12-10 02:07:18
4871899 kochi-yokohama-hp.jp 0 4801893 2011-12-10 02:07:23
4871900 knumo.com 0 No Rank 2011-12-10 02:07:26
4871901 knowbd.com 0 13975630 2011-12-10 02:07:32
4871902 knoalster-mix.nl 0 No Rank 2011-12-10 02:07:35
4871903 knightsofcydonia.org 0 5067540 2011-12-10 02:07:38
4871904 klvincentwelding.com 0 No Rank 2011-12-10 02:07:43
4871905 knightnagel.com 0 No Rank 2011-12-10 02:07:43
4871906 myfreepress.net 0 No Rank 2011-12-10 02:07:46
4871907 ipp.se 0 No Rank 2011-12-10 02:07:48
4871908 edworthys.co.uk 0 7696540 2011-12-10 02:07:48
4871909 klubok-new.ru 0 No Rank 2011-12-10 02:07:50
4871910 itu.se 0 7937669 2011-12-10 02:07:53
4871911 hfcredit.gov.cn 0 6600784 2011-12-10 02:07:55
4871912 klostergade-bb.dk 0 No Rank 2011-12-10 02:07:55
4871913 kletteranlage-dav-neu-ulm.de 0 8256744 2011-12-10 02:07:55
4871914 novadisplay.com 0 1669437 2011-12-10 02:07:56
4871915 jarlabanke.com 0 No Rank 2011-12-10 02:07:57
4871916 klemmpartner.de 0 5328619 2011-12-10 02:07:58
4871917 networkedmd.com 0 No Rank 2011-12-10 02:08:00
4871918 jaggillarmittjobb.se 0 No Rank 2011-12-10 02:08:01
4871919 divorceforumsforwomen.com 0 No Rank 2011-12-10 02:08:01
4871920 klbe.ca 0 23191578 2011-12-10 02:08:02
4871921 klamathriver.org 0 19119682 2011-12-10 02:08:02
4871922 goldieoldie.com 0 No Rank 2011-12-10 02:08:06
4871923 kk-abunao.com 0 No Rank 2011-12-10 02:08:11
4871924 gaybizmiami.com 0 No Rank 2011-12-10 02:08:11
4871925 4erasjkd.8k.com 0 3407 2011-12-10 02:08:14
4871926 mattikaarts.com 0 457234 2011-12-10 02:08:14
4871927 kiwiwebsites.com 0 542181 2011-12-10 02:08:16
4871928 kjsindustrial.com 0 No Rank 2011-12-10 02:08:18
4871929 kiwanismhr.org 0 No Rank 2011-12-10 02:08:19
4871930 kityrule.pl 0 No Rank 2011-12-10 02:08:21
4871931 rssdirectory.ru 0 275592 2011-12-10 02:08:22
4871932 kittiwake-books.com 0 No Rank 2011-12-10 02:08:24
4871933 kitesforpeace.org 0 No Rank 2011-12-10 02:08:25
4871934 regextester.com 0 167860 2011-12-10 02:08:26
4871935 rabbishmuel.com 0 No Rank 2011-12-10 02:08:28
4871936 kitchens-scotland.com 0 No Rank 2011-12-10 02:08:28
4871937 kissbully.hu 0 No Rank 2011-12-10 02:08:33
4871938 castservice.com 0 No Rank 2011-12-10 02:08:35
4871939 njcremation.com 0 No Rank 2011-12-10 02:08:36
4871940 multijournal.ru 0 5724096 2011-12-10 02:08:38
4871941 videos-sexy.net 0 3243045 2011-12-10 02:08:41
4871942 westernshow.net 0 22540823 2011-12-10 02:08:42
4871943 jeppe.com 0 16629774 2011-12-10 02:08:43
4871944 kirsten-andersen.dk 0 9202543 2011-12-10 02:08:44
4871945 kirkwoodcarwash.com 0 No Rank 2011-12-10 02:08:44
4871946 rundschau.co.at 0 No Rank 2011-12-10 02:08:46
4871947 kirkendallatlaw.com 0 No Rank 2011-12-10 02:08:47
4871948 jkfblogg.se 0 No Rank 2011-12-10 02:08:49
4871949 rheninghaus.com 0 10711944 2011-12-10 02:08:51
4871950 kinnamons.com 0 No Rank 2011-12-10 02:08:52
4871951 ds-solution.com 0 14895667 2011-12-10 02:08:55
4871952 kingmanarizonapetguide.com 0 No Rank 2011-12-10 02:08:55
4871953 myroadtokona.at 0 6466597 2011-12-10 02:08:56
4871954 kindredorg.com 0 No Rank 2011-12-10 02:08:59
4871955 kineimaru.com 0 No Rank 2011-12-10 02:09:01
4871956 danielronel.com 0 No Rank 2011-12-10 02:09:02
4871957 kindredgardens.com 0 No Rank 2011-12-10 02:09:02
4871958 ubcgastonia.org 0 No Rank 2011-12-10 02:09:03
4871959 lnamattress.com 0 No Rank 2011-12-10 02:09:05
4871960 kimskornercc.com 0 No Rank 2011-12-10 02:09:06
4871961 caucasus.8k.com 0 3407 2011-12-10 02:09:10
4871962 axisdigital.com 0 No Rank 2011-12-10 02:09:11
4871963 kiltegan.com 0 No Rank 2011-12-10 02:09:12
4871964 bookcabin.co.uk 0 No Rank 2011-12-10 02:09:13
4871965 vision-nary.com 0 No Rank 2011-12-10 02:09:15
4871966 kidsmart-toys.com 0 10543049 2011-12-10 02:09:16
4871967 kidpixphotography.com 0 No Rank 2011-12-10 02:09:17
4871968 salsaservice.de 0 7551832 2011-12-10 02:09:17
4871969 d-shinohara.com 0 No Rank 2011-12-10 02:09:18
4871970 khtebis.cz 0 No Rank 2011-12-10 02:09:24
4871971 melitoonline.it 0 1355787 2011-12-10 02:09:25
4871972 khanqahe-niazia.com 0 10639497 2011-12-10 02:09:26
4871973 negracor.com.br 0 No Rank 2011-12-10 02:09:30
4871974 keytag1.com 0 2891294 2011-12-10 02:09:34
4871975 info-liberec.cz 0 1304314 2011-12-10 02:09:35
4871976 pontoblogue.com 0 7831551 2011-12-10 02:09:36
4871977 keystoneprojects.com 0 17549001 2011-12-10 02:09:38
4871978 tmc-world.co.jp 0 No Rank 2011-12-10 02:09:41
4871979 key-logger.us 0 17530749 2011-12-10 02:09:41
4871980 flyttebyraa.com 0 12706127 2011-12-10 02:09:42
4871981 perfume-etc.com 0 9857674 2011-12-10 02:09:42
4871982 keweenawtrails.com 0 8341757 2011-12-10 02:09:42
4871983 keweenawexcursions.com 0 15610258 2011-12-10 02:09:45
4871984 kevinwarn.com 0 19424433 2011-12-10 02:09:49
4871985 ketteranstudios.com 0 No Rank 2011-12-10 02:09:49
4871986 pgtaiwan.com.tw 0 2781071 2011-12-10 02:09:52
4871987 murasakey24.com 0 No Rank 2011-12-10 02:09:56
4871988 protoria.com.ua 0 21230665 2011-12-10 02:09:58
4871989 kenzlenz.com 0 No Rank 2011-12-10 02:10:00
4871990 ketabaya.com 0 6638643 2011-12-10 02:10:02
4871991 kentbash.com 0 No Rank 2011-12-10 02:10:03
4871992 zippo-italia.it 0 No Rank 2011-12-10 02:10:05
4871993 maps.qihuopz.com 0 11535328 2011-12-10 02:10:06
4871994 art3gallery.com 0 11501218 2011-12-10 02:10:08
4871995 rutasdevino.com 0 1101517 2011-12-10 02:10:09
4871996 kentaroroy.com 0 13148105 2011-12-10 02:10:12
4871997 kentaogawara.com 0 No Rank 2011-12-10 02:10:12
4871998 rspconcepts.com 0 No Rank 2011-12-10 02:10:14
4871999 plantsavers.org 0 6177768 2011-12-10 02:10:15